Location: Canazei
(46.4667°N, 11.7667°E)
Time: 05:16:12
(UTC+00:00)

Daily predictions for brighter satellites

Satellite Brightness Start Highest point End
(mag) Time Altitude Azimuth Time Altitude Azimuth Time Altitude Azimuth
COSMOS 2406 3.8 00:02:00 10° NNW 00:07:32 50° ENE 00:08:16 47° E
Cosmos 1844 4.1 00:09:36 56° NW 00:09:36 56° NW 00:14:57 10° NNE
Cosmos 1238 Rocket 4.3 00:03:18 10° N 00:09:38 59° ENE 00:10:27 55° ESE
Meteor 1-27 Rocket 3.9 00:13:49 70° NNW 00:13:49 70° NNW 00:18:57 10° N
Meteor 1-11 Rocket 4.3 00:11:43 10° NNW 00:16:35 51° WNW 00:16:35 51° WNW
BREEZE-M R/B 4.4 00:19:32 39° ENE 00:19:32 39° ENE 00:23:52 10° ENE
Cosmos 1538 Rocket 4.3 00:12:52 10° NNW 00:17:44 66° NNE 00:17:44 66° NNE
Cosmos 2341 Rocket 3.9 00:12:35 10° N 00:18:59 89° W 00:19:02 88° SW
Cosmos 2181 Rocket 4.1 00:21:34 66° ESE 00:21:53 67° E 00:28:06 10° NNE
SJ 16-02 2.7 00:25:14 36° ENE 00:25:14 36° ENE 00:28:10 10° NNE
SL-8 Rocket 3.9 00:22:16 10° N 00:28:36 86° E 00:28:55 81° SE
Meteor 1-19 Rocket 4.2 00:46:28 67° ESE 00:46:42 68° E 00:52:11 10° NNE
Cosmos 1844 Rocket 4.1 00:46:55 25° WNW 00:47:50 27° NW 00:52:31 10° N
Meteor 2-4 Rocket 4.4 00:56:22 43° SE 00:57:43 51° E 01:03:24 10° NNE
Resurs 1-4 Rocket 1.9 00:55:39 10° NNE 01:00:57 87° ESE 01:01:06 84° SSE
USA 234 3.8 00:54:48 10° ENE 01:00:57 41° SE 01:01:54 39° SSE
Cosmos 864 Rocket 4.4 00:59:23 10° NNW 01:05:35 66° W 01:06:04 63° WSW
SL-4 R/B 2.5 01:05:32 71° N 01:05:46 73° NNE 01:10:35 10° ESE
Cosmos 2082 Rocket 2.3 01:00:24 10° NNW 01:06:02 71° ENE 01:08:15 38° SE
Cosmos 2218 Rocket 4.0 01:00:36 10° NNW 01:06:40 60° W 01:06:59 59° WSW
Cosmos 2242 Rocket 4.1 01:08:48 51° E 01:08:48 51° E 01:13:05 10° NNE
Meteor 1-18 Rocket 4.1 01:09:58 70° SSW 01:10:41 85° WNW 01:16:30 10° N
Cosmos 1833 Rocket 2.9 01:06:30 10° NNW 01:11:25 54° W 01:11:25 54° W
CZ-4C R/B 3.0 01:04:58 10° NW 01:12:11 81° NE 01:20:35 10° SE
Cosmos 158 Rocket 4.1 01:07:43 10° NNW 01:11:43 54° NW 01:11:43 54° NW
Cosmos 923 Rocket 3.8 01:07:35 10° NNW 01:12:50 89° WSW 01:13:16 76° SSE
Cosmos 990 Rocket 4.2 01:12:31 57° SE 01:13:03 60° ESE 01:18:12 10° NNE
Cosmos 2366 rocket 4.1 01:08:51 10° NNW 01:14:49 54° W 01:15:08 53° WSW
Helios 1B rocket 3.0 01:11:33 10° N 01:14:52 51° NNW 01:14:52 51° NNW
CZ-2D R/B 2.1 01:10:11 10° N 01:15:41 75° WNW 01:16:15 68° WSW
SL-16 R/B 2.5 01:19:17 56° SW 01:20:03 60° WSW 01:26:16 10° NNW
Cosmos 1821 Rocket 4.0 01:16:32 10° N 01:22:54 82° E 01:25:40 37° SSE
Meteor 1-28 Rocket 4.1 01:23:51 43° E 01:24:11 44° ENE 01:27:44 10° N
Cosmos 1908 Rocket 3.5 01:20:54 10° N 01:25:06 77° NW 01:25:06 77° NW
Cosmos 1937 Rocket 4.1 01:25:29 38° SE 01:26:44 46° ESE 01:31:39 10° NNE
SL-08 R/B 4.3 01:21:08 10° NNW 01:27:14 72° W 01:28:41 53° SSW
AQUA 3.6 01:22:32 10° NNE 01:27:19 83° WNW 01:27:38 77° SW
Cosmos 2278 Rocket 2.4 01:30:00 50° W 01:31:00 57° WNW 01:36:36 10° NNE
Cosmos 1943 Rocket 3.6 01:29:12 21° SSE 01:31:48 31° ESE 01:36:41 10° NE
Cosmos 2084 4.2 01:32:01 41° ESE 01:32:01 41° ESE 01:36:00 10° NE
ARIANE 5 R/B 4.3 01:27:56 10° NE 01:32:17 26° E 01:35:58 13° SE
Cosmos 1898 Rocket 3.6 01:31:54 55° S 01:32:59 73° ESE 01:38:16 10° NNE
ARGOS Delta rocket 3.8 01:29:16 10° NNE 01:33:40 64° E 01:34:19 55° SE
ADEOS II 2.1 01:28:25 10° NNE 01:33:43 78° ESE 01:35:02 51° S
Landsat 4 4.3 01:32:04 10° N 01:35:01 47° NNW 01:35:01 47° NNW
Nadezhda 3 Rocket 3.9 01:41:59 42° SSW 01:44:21 82° W 01:50:43 10° N
ATLAS 5 CENTAUR R/B 2.8 01:43:28 10° NW 01:48:21 39° WSW 01:48:21 39° WSW
CBERS-1 4.1 01:44:19 10° NNE 01:49:27 75° ESE 01:51:19 40° S
Gbstr 26 Del rocket 4.1 01:46:45 28° W 01:49:52 58° NNW 01:54:51 10° ENE
COSMOS 2406 4.4 01:46:49 10° NW 01:50:17 25° W 01:50:17 25° W
Cosmos 1703 Rocket 3.5 01:51:28 60° W 01:51:45 61° WNW 01:56:04 10° N
Cosmos 2112 Rocket 4.0 01:47:14 10° NNW 01:52:30 64° WSW 01:54:18 40° S
Cosmos 1782 Rocket 3.5 01:49:41 10° NNW 01:54:10 75° W 01:55:05 55° SSW
Meteor 1-29 4.3 01:53:10 10° N 01:55:24 28° NW 01:55:24 28° NW
NOSS 3-4 (A) 3.8 01:49:11 10° NW 01:56:12 90° WSW 02:04:03 10° SE
NOSS 3-4 (C) 3.8 01:49:18 10° NW 01:56:20 90° ENE 02:04:10 10° SE
NPP 4.2 01:51:20 10° N 01:56:23 42° WNW 01:57:40 36° W
Cosmos 2369 Rocket 3.9 01:52:30 11° SSE 01:56:46 26° ESE 02:01:21 10° NE
IDEFIX/ARIANE 42P 2.9 01:51:40 10° NNE 01:56:52 63° ESE 01:59:37 28° S
IRS-1D 3.5 01:53:53 10° NNE 01:59:05 77° WNW 02:00:56 41° SSW
Cosmos 1300 Rocket 4.3 01:54:42 10° N 01:59:05 53° ENE 02:03:00 12° SSE
X-37B 1.7 02:00:54 36° ESE 02:00:54 36° ESE 02:03:09 10° E
Okean 3 3.4 01:59:32 47° S 02:00:44 84° E 02:05:03 10° N
Spot 1 3.8 01:59:50 50° S 02:00:49 74° WSW 02:05:09 10° NNW
Okean 2 Rocket 4.1 01:57:49 10° N 02:02:07 46° ENE 02:06:21 10° SSE
Cosmos 1934 Rocket 3.9 01:56:01 10° N 02:02:22 90° NW 02:07:32 16° S
SJ 16-02 3.0 02:02:12 20° WNW 02:02:45 21° WNW 02:06:07 10° N
Cosmos 2297 3.8 02:02:44 33° SSW 02:05:23 76° ESE 02:11:07 10° NNE
Cosmos 2221 Rocket 4.3 02:07:24 20° SSE 02:10:19 52° E 02:14:44 10° NNE
Okean 1-7 3.5 02:09:59 39° W 02:10:26 40° WNW 02:14:28 10° N
ATLAS 2AS CENTAUR R/B 3.0 02:03:11 10° NW 02:10:38 73° NE 02:17:29 10° SE
USA 81 4.0 02:07:51 10° N 02:13:10 90° WNW 02:17:18 17° S
SL-08 R/B 3.6 02:10:18 10° SSE 02:15:10 69° ENE 02:19:58 10° N
CZ-4B R/B 3.5 02:12:35 10° NNE 02:17:21 69° ESE 02:20:28 22° S
Cosmos 1378 3.2 02:18:53 49° WSW 02:19:28 56° WNW 02:23:07 10° N
Cosmos 1766 4.0 02:16:14 10° N 02:20:11 54° ENE 02:24:05 10° SSE
IRS-1C 4.1 02:16:37 10° NNE 02:22:00 85° ESE 02:25:36 21° SSW
CZ-4C R/B 3.9 02:23:10 36° SW 02:24:13 42° W 02:28:27 10° NNW
DELTA 2 R/B (1) 4.0 02:23:20 31° SW 02:25:14 41° S 02:30:25 10° ESE
Cosmos 1605 Rocket 3.9 02:19:54 10° N 02:26:03 88° ENE 02:32:14 10° S
Cosmos 1680 Rocket 4.3 02:21:55 10° NW 02:26:26 29° W 02:27:04 28° WSW
ADEOS Rocket 3.3 02:21:30 16° S 02:26:44 57° W 02:33:47 10° NNW
Cosmos 489 Rocket 4.5 02:21:54 10° NNW 02:27:59 58° WSW 02:34:03 10° S
COSMOS 2441 4.5 02:24:14 10° NNE 02:29:07 75° ESE 02:32:55 17° S
Cosmos 1733 3.2 02:26:25 10° N 02:30:13 82° E 02:33:46 11° S
ERS-1 4.4 02:33:09 10° NNE 02:38:10 88° WNW 02:42:08 17° SSW
Resurs 1-4 Rocket 3.9 02:36:58 10° NNW 02:40:04 16° WNW 02:42:11 13° W
BREEZE-M R/B 4.4 02:36:09 10° WNW 02:40:56 71° NNE 02:51:41 10° E
Cosmos 1805 3.3 02:37:27 10° NNW 02:41:20 58° W 02:44:10 17° S
USA 305 4.4 02:38:25 10° NW 02:42:25 37° NNE 02:46:26 10° E
CREW DRAGON DEMO-1 DEB 4.4 02:41:32 16° NW 02:43:05 26° N 02:45:28 10° NE
USA 234 3.4 02:37:42 10° NE 02:44:12 71° NNW 02:49:15 18° WSW
Sich 1 Rocket 4.0 02:40:53 10° NNW 02:45:15 44° W 02:48:26 17° SSW
SL-4 R/B 2.9 02:41:12 11° WNW 02:45:17 35° SW 02:49:36 10° SSE
Cosmos 1470 4.4 02:43:38 10° N 02:47:15 36° ENE 02:50:50 10° SE
Cosmos 1378 Rocket 4.2 02:43:16 10° S 02:47:36 58° E 02:51:56 10° NNE
Cosmos 2082 Rocket 3.5 02:45:42 10° WNW 02:49:30 19° W 02:50:00 19° WSW
Cosmos 1818 4.4 02:47:06 10° NNW 02:52:31 55° NE 02:57:52 10° SE
CZ-2C R/B 3.0 02:49:38 10° NNE 02:54:21 57° E 02:59:13 10° S
CZ-2D R/B 4.2 02:52:12 10° NNW 02:54:48 14° NW 02:57:23 10° W
Cosmos 1356 Rocket 4.1 02:52:14 10° NNW 02:55:58 33° W 02:58:36 17° SSW
Cosmos 1048 Rocket 4.1 02:51:44 10° NNW 02:57:10 89° ENE 03:02:30 10° SSE
MSX 4.0 02:54:18 10° N 02:59:57 57° WNW 03:05:02 13° SW
USA 306 4.2 02:56:18 10° NW 03:00:25 42° NNE 03:04:31 10° E
CZ-4C R/B 3.7 02:54:10 10° WNW 03:00:28 29° WSW 03:07:23 10° SSW
ALOS 3.8 02:56:42 10° NNE 03:01:02 36° E 03:05:20 10° SSE
Cosmos 1674 Rocket 3.5 02:57:07 10° S 03:01:28 86° W 03:05:54 10° N
Meteor 2-20 4.5 02:55:32 10° S 03:01:41 87° W 03:07:53 10° N
Cosmos 1707 4.4 02:58:29 10° SSE 03:01:59 34° E 03:05:29 10° NNE
Cosmos 1400 Rocket 3.5 02:58:51 10° N 03:02:56 60° ENE 03:07:01 10° SSE
SL-24 R/B - RUBIN 2 4.0 02:59:43 10° NW 03:05:22 88° NE 03:10:16 10° SE
Cosmos 1459 Rocket 4.4 03:01:34 10° N 03:07:57 70° E 03:14:15 10° SSE
Cosmos 1727 Rocket 4.0 03:02:23 10° SSW 03:08:36 79° W 03:14:57 10° N
Cosmos 1900 4.5 03:04:02 12° SSW 03:08:46 80° ESE 03:13:52 10° NE
Cosmos 1726 2.9 03:06:48 10° N 03:10:29 56° ENE 03:14:09 10° SSE
IRAS Rocket 4.2 03:05:29 10° SSE 03:10:59 79° WSW 03:16:34 10° NNW
ARIANE 5 R/B 3.0 03:06:35 10° N 03:11:35 46° WNW 03:16:19 11° SW
ADEOS II 3.8 03:09:23 10° NNW 03:12:47 18° WNW 03:15:59 11° W
Cosmos 1943 Rocket 2.7 03:10:44 14° SW 03:15:20 46° WNW 03:20:48 10° NNE
Cosmos 2278 Rocket 4.3 03:13:37 10° WNW 03:16:23 14° NW 03:19:10 10° N
Cosmos 2344 4.5 03:08:08 10° NW 03:17:29 88° SW 03:30:39 10° SE
USA 307 3.9 03:13:54 10° NW 03:18:05 47° NNE 03:22:15 10° E
Cosmos 2263 4.3 03:12:27 10° SSW 03:18:10 82° ESE 03:23:58 10° NNE
Cosmos 494 Rocket 3.9 03:15:21 10° NNW 03:20:38 79° WSW 03:25:49 10° SSE
Cosmos 1842 3.4 03:18:10 10° SSW 03:21:58 55° WNW 03:25:46 10° N
Cosmos 44 3.5 03:17:29 10° NW 03:22:58 82° SW 03:28:15 10° SSE
Spot 4 Rocket 4.2 03:19:02 10° N 03:24:06 56° WNW 03:29:06 10° SSW
PAYLOAD A 4.0 03:19:36 10° N 03:24:43 71° WNW 03:29:36 10° SSW
GP-B 3.1 03:20:52 10° N 03:25:20 81° W 03:29:46 10° S
Cosmos 1455 Rocket 4.5 03:23:54 10° N 03:28:04 43° ENE 03:32:11 10° SSE
PSLV R/B 3.6 03:25:39 10° NNE 03:29:55 80° ESE 03:34:06 10° S
Cosmos 2298 Rocket 4.2 03:25:14 10° SW 03:30:28 59° WNW 03:35:44 10° NNE
USA 308 3.7 03:26:37 10° NW 03:30:51 54° NNE 03:35:03 10° ESE
CZ-2D R/B 4.5 03:31:15 10° N 03:34:52 30° WNW 03:38:33 10° SW
OE (NEXTSAT) 4.3 03:31:42 10° W 03:35:10 85° S 03:38:39 10° E
Cosmos 1833 4.2 03:29:48 10° NNW 03:35:33 80° WSW 03:41:17 10° SSE
IDEFIX/ARIANE 42P 4.0 03:32:11 10° NNW 03:35:59 21° WNW 03:39:47 10° WSW
X-37B 0.6 03:33:23 10° W 03:36:33 68° S 03:39:44 10° E
Cosmos 1953 3.9 03:33:15 10° N 03:37:01 40° ENE 03:40:45 10° SSE
Gbstr 26 Del rocket 4.2 03:32:09 10° WNW 03:37:30 48° N 03:41:52 10° E
Okean 2 3.6 03:33:47 10° SSW 03:37:50 53° WNW 03:41:56 10° N
Cosmos 2369 Rocket 2.5 03:35:01 10° SW 03:40:28 52° WNW 03:45:58 10° NNE
CZ-3B R/B 3.5 03:26:06 10° WSW 03:43:14 76° NNW 03:47:18 10° NE
CZ-2C R/B 3.3 03:40:16 10° N 03:43:49 39° WNW 03:47:25 10° SW
DNEPR-1 R/B 4.4 03:39:28 10° SW 03:45:33 60° NW 03:50:34 10° NNE
